Regional Weather Roundup
Issued by NWS

Home | Current Version | Previous Version | Graphics & Text | Print | Product List | Glossary On
Versions: 1 2 3 4 5 6 7 8 9 10 11 12 13 14 15 16 17 18 19 20 21 22 23 24 25 26 27 28 29 30 31 32 33 34 35 36 37 38 39 40 41 42 43 44 45 46 47 48 49
000
ASUS45 KSLC 250810
RWRUT

UTAH REGIONAL WEATHER ROUNDUP
NATIONAL WEATHER SERVICE SALT LAKE CITY UT
100 AM MST SUN JAN 25 2015

UTZ001>011-023>025-250900-

NORTHERN UTAH

CITY           SKY/WX    TMP DP  RH WIND       PRES   REMARKS
BRIGHAM CITY   CLOUDY    33  29  83 CALM      30.49R
HILL AFB       CLOUDY    35  23  61 E6        30.45F WCI  30
LOGAN          CLOUDY    31  29  92 N6        30.47S FOG     WCI  25
OGDEN          CLOUDY    34  27  75 E3        30.45F
PROVO AIRPORT  CLOUDY    34  25  69 CALM      30.49F
SALT LAKE CITY CLOUDY    34  29  82 SE6       30.46F WCI  29
VERNAL         CLEAR     21  14  74 W3        30.38F
WENDOVER       CLEAR     27  23  86 CALM      30.47F
HEBER CITY     CLOUDY    28  25  86 CALM      30.45F
WEST JORDAN    CLOUDY    36  27  69 SE6       30.47F WCI  31

$$

UTZ012>022-026-027-250900-

SOUTHERN/CENTRAL UTAH

CITY           SKY/WX    TMP DP  RH WIND       PRES   REMARKS
BLANDING       CLEAR     32  19  59 CALM      30.34S
BRYCE CANYON   CLEAR     24  18  77 W9        30.38F WCI  14
CEDAR CITY     CLEAR     27  21  78 N7        30.39F WCI  19
DELTA          CLOUDY    35  27  73 NE5       30.45F WCI  31
MILFORD        CLOUDY    34  25  69 NE3       30.43S
MOAB/CYNLANDS  CLEAR     27  21  78 NW10      30.37R WCI  17
PRICE          CLEAR     30  15  53 E7        30.36S WCI  23
ST GEORGE      MOSUNNY   45  21  39 NW3       30.30F
KANAB          CLEAR     28  19  69 E8        30.35S WCI  20

$$

REGIONAL REPORTS     COLORADO/ARIZONA

CITY           SKY/WX    TMP DP  RH WIND       PRES   REMARKS
CRAIG, CO        N/A     19  14  81 NE3       30.34F
GRAND JUNCTION CLEAR     24  17  74 SE8       30.38S WCI  15
RIFLE          MOCLDY    25  16  68 CALM      30.39F
MONTROSE       PTCLDY    20  13  74 SE9       30.40F WCI   9
CORTEZ         CLEAR     20  15  81 E7        30.28S WCI  11
PAGE, AZ       NOT AVBL
GRAND CANYON   CLEAR     24  15  68 NE5       30.32S WCI  18
KINGMAN        CLEAR     47  19  33 E6        30.25R
FLAGSTAFF      CLEAR     39   8  27 E12       30.28S WCI  32

$$

REGIONAL REPORTS    NEVADA/IDAHO/WYOMING

CITY           SKY/WX    TMP DP  RH WIND       PRES   REMARKS
LAS VEGAS, NV  CLEAR     52  22  30 S8        30.22S
ELY            CLEAR     24  20  84 S7        30.46S WCI  16
ELKO           CLEAR     29  25  85 CALM      30.45F
POCATELLO, ID  CLOUDY    30  29  96 NE6       30.46S WCI  24
BURLEY         CLOUDY    32  29  88 CALM      30.44R
EVANSTON, WY   PTCLDY    27  24  89 SW10      30.40F WCI  17
ROCK SPRINGS   PTCLDY    33  27  78 W28G33    30.31S WCI  20
KEMMERER       CLOUDY    30  30 100 CALM      30.39R

$$


USA.gov is the U.S. government's official web portal to all federal, state and local government web resources and services.